Content
SEND FEEDBACK

Daily
Averages
Monthly
Summary
United States of America

CROCKER, MISSOURI


Home > North America > United States > Missouri
Elevation: 991 feet     Latitude: 37 57N     Longitude: 092 15W

WEATHER
 
SELECT A DAY
Number of Records: 171,848;   Date Range: 1/1/95 - 12/18/14
 
SHARE

PRINT THIS DATA

[ ← Previous Day ]
WEATHER ALMANAC - JANUARY 9, 2013
[ Next Day → ]
[ °C ]   °F
Weather ElementAverageHighLow
Temperature45.5 °F55.6 °F (2:55 pm)42.6 °F (8:55 am)
Dewpoint43.7 °F46.4 °F (12:16 am)33.4 °F (7:55 pm)
Humidity94.8 %100 % (12:16 am)51 % (1:55 pm)
Barometer30.33 in30.42 in (9:47 am)30.20 in (12:16 am)
Wind Speed2.4 mph9.2 mph (9:55 pm)
Weather ElementAverage
Visibility4.4 mi
Wind DirectionESE (98.4 °)

Weather ElementTotal
Precipitation0.01 in
Heating Degree Days15.9 (Base 65)
Averaged from 99 records on January 9, 2013
WEATHER CONDITIONS BREAKOUT
WIND DIRECTION BREAKOUT
WEATHER BY HOUR - JANUARY 9, 2013
[ °C ]   °F
Local TimeTemperatureDewpointHumidityBarometerVisibilityWind DirectionWind SpeedGust SpeedPrecipitationEventsConditions
12:16 AM46.4 °F46.4 °F100 %30.20 in8.0 miVariable4.6 mphLight Drizzle
12:21 AM46.4 °F46.4 °F100 %30.21 in7.0 miVariable4.6 mphLight Drizzle
12:27 AM46.4 °F46.4 °F100 %30.21 in7.0 miWest (260°)3.5 mphLight Drizzle
12:30 AM46.4 °F46.4 °F100 %30.21 in7.0 miWest (260°)3.5 mphLight Drizzle
12:32 AM46.4 °F46.4 °F100 %30.21 in7.0 miWest (270°)3.5 mphOvercast
12:36 AM46.4 °F46.4 °F100 %30.22 in8.0 miWest (270°)3.5 mphOvercast
12:54 AM46.4 °F46.4 °F100 %30.22 in10.0 miWSW (250°)5.8 mphOvercast
12:55 AM46.4 °F46.4 °F100 %30.22 in10.0 miWSW (250°)4.6 mph0.00 inOvercast
1:06 AM46.4 °F46.4 °F100 %30.23 in10.0 miVariable3.5 mphOvercast
1:19 AM46.4 °F46.4 °F100 %30.24 in10.0 miWSW (240°)5.8 mphOvercast
1:39 AM46.4 °F46.4 °F100 %30.25 in10.0 miSW (230°)4.6 mphOvercast
1:43 AM46.4 °F46.4 °F100 %30.25 in10.0 miSW (230°)4.6 mphRainLight Rain
1:55 AM46.0 °F46.0 °F100 %30.25 in6.0 miSSW (200°)4.6 mph0.01 inRainLight Rain
2:13 AM46.4 °F46.4 °F100 %30.24 in10.0 miSouth (190°)3.5 mphOvercast
2:21 AM46.4 °F46.4 °F100 %30.24 in10.0 miCalmOvercast
2:54 AM46.4 °F46.4 °F100 %30.26 in10.0 miCalmOvercast
2:55 AM45.7 °F45.7 °F100 %30.26 in10.0 miCalm0.00 inOvercast
3:00 AM46.4 °F46.4 °F100 %30.26 in10.0 miCalmOvercast
3:06 AM46.4 °F46.4 °F100 %30.26 in10.0 miCalmOvercast
3:12 AM46.4 °F46.4 °F100 %30.26 in10.0 miCalmOvercast
3:31 AM44.6 °F44.6 °F100 %30.26 in10.0 miCalmOvercast
3:55 AM45.1 °F45.1 °F100 %30.26 in7.0 miCalmOvercast
4:37 AM44.6 °F44.6 °F100 %30.27 in4.0 miCalmOvercast
4:55 AM44.4 °F44.4 °F100 %30.27 in5.0 miCalmOvercast
5:08 AM44.6 °F44.6 °F100 %30.27 in2.5 miCalmOvercast
5:20 AM44.6 °F44.6 °F100 %30.27 in3.0 miCalmOvercast
5:23 AM44.6 °F44.6 °F100 %30.27 in2.5 miCalmOvercast
5:26 AM44.6 °F44.6 °F100 %30.28 in1.8 miCalmOvercast
5:27 AM44.6 °F44.6 °F100 %30.27 in1.8 miWNW (300°)3.5 mphOvercast
5:33 AM44.6 °F44.6 °F100 %30.28 in2.0 miCalmOvercast
5:43 AM44.6 °F44.6 °F100 %30.29 in3.0 miCalmOvercast
5:53 AM44.6 °F44.6 °F100 %30.30 in1.2 miWest (270°)3.5 mphOvercast
5:54 AM44.6 °F44.6 °F100 %30.30 in1.5 miWest (280°)3.5 mphOvercast
5:55 AM44.2 °F44.2 °F100 %30.30 in1.5 miWest (270°)3.5 mphOvercast
5:56 AM44.6 °F44.6 °F100 %30.30 in1.8 miCalmOvercast
5:57 AM44.6 °F44.6 °F100 %30.30 in2.0 miCalmOvercast
5:59 AM44.6 °F44.6 °F100 %30.30 in3.0 miWest (270°)3.5 mphOvercast
6:15 AM44.6 °F44.6 °F100 %30.31 in2.5 miCalmOvercast
6:17 AM44.6 °F44.6 °F100 %30.31 in1.8 miCalmOvercast
6:18 AM44.6 °F44.6 °F100 %30.31 in1.5 miCalmOvercast
6:20 AM44.6 °F44.6 °F100 %30.31 in1.2 miCalmOvercast
6:21 AM44.6 °F44.6 °F100 %30.31 in1.0 miCalmOvercast
6:24 AM44.6 °F44.6 °F100 %30.32 in0.8 miCalmOvercast
6:38 AM44.6 °F44.6 °F100 %30.32 in0.8 miNNW (330°)3.5 mphMist
6:39 AM44.6 °F44.6 °F100 %30.32 in0.5 miCalmFogFog
6:55 AM44.6 °F44.6 °F100 %30.33 in0.5 miNW (310°)3.5 mphFogFog
7:09 AM44.6 °F44.6 °F100 %30.34 in0.2 miCalmFogFog
7:15 AM44.6 °F44.6 °F100 %30.34 in0.2 miCalmFogFog
7:16 AM44.6 °F44.6 °F100 %30.34 in0.2 miCalmFogFog
7:22 AM44.6 °F44.6 °F100 %30.34 in0.2 miCalmFogFog
7:23 AM44.6 °F44.6 °F100 %30.34 in0.2 miCalmFogFog
7:29 AM42.8 °F42.8 °F100 %30.35 in0.2 miNNW (340°)3.5 mphFogFog
7:33 AM42.8 °F42.8 °F100 %30.35 in0.2 miNNW (330°)3.5 mphFogFog
7:44 AM42.8 °F42.8 °F100 %30.36 in0.2 miNNW (340°)3.5 mphFogFog
7:51 AM42.8 °F42.8 °F100 %30.35 in0.2 miCalmFogFog
7:55 AM42.8 °F42.8 °F100 %30.36 in0.2 miCalmFogFog
8:03 AM42.8 °F42.8 °F100 %30.36 in0.2 miNNW (330°)3.5 mphFogFog
8:31 AM42.8 °F42.8 °F100 %30.38 in0.2 miCalmFogFog
8:45 AM42.8 °F42.8 °F100 %30.39 in0.2 miCalmFogFog
8:47 AM42.8 °F42.8 °F100 %30.39 in0.2 miCalmFogFog
8:55 AM42.6 °F42.6 °F100 %30.40 in0.5 miCalmFogFog
9:02 AM42.8 °F42.8 °F100 %30.40 in0.2 miCalmFogFog
9:21 AM42.8 °F42.8 °F100 %30.41 in0.2 miCalmFogFog
9:22 AM42.8 °F42.8 °F100 %30.40 in0.2 miCalmFogFog
9:26 AM44.6 °F44.6 °F100 %30.41 in0.5 miCalmFogFog
9:30 AM44.6 °F44.6 °F100 %30.41 in0.8 miCalmMist
9:32 AM44.6 °F44.6 °F100 %30.41 in1.0 miCalmMist
9:37 AM44.6 °F44.6 °F100 %30.41 in0.8 miCalmOvercast
9:39 AM44.6 °F44.6 °F100 %30.41 in0.8 miCalmOvercast
9:40 AM44.6 °F44.6 °F100 %30.41 in0.8 miCalmOvercast
9:41 AM44.6 °F44.6 °F100 %30.41 in0.8 miNorth (350°)3.5 mphOvercast
9:42 AM44.6 °F44.6 °F100 %30.41 in0.8 miNorth (350°)3.5 mphOvercast
9:45 AM44.6 °F44.6 °F100 %30.41 in1.0 miNorth (360°)3.5 mphOvercast
9:46 AM44.6 °F44.6 °F100 %30.41 in1.2 miNorth (360°)3.5 mphOvercast
9:47 AM44.6 °F44.6 °F100 %30.42 in1.5 miNorth (360°)3.5 mphOvercast
9:48 AM44.6 °F44.6 °F100 %30.42 in1.8 miNorth (360°)3.5 mphOvercast
9:49 AM44.6 °F44.6 °F100 %30.42 in2.5 miNorth (360°)3.5 mphOvercast
9:50 AM44.6 °F44.6 °F100 %30.42 in4.0 miNorth (360°)3.5 mphOvercast
9:54 AM44.6 °F44.6 °F100 %30.41 in2.5 miCalmOvercast
9:55 AM44.2 °F44.2 °F100 %30.41 in2.0 miNorth (10°)3.5 mphOvercast
9:58 AM44.6 °F44.6 °F100 %30.41 in1.8 miVariable3.5 mphOvercast
10:04 AM44.6 °F44.6 °F100 %30.41 in2.0 miNorth (10°)3.5 mphOvercast
10:09 AM44.6 °F44.6 °F100 %30.42 in3.0 miNNE (20°)4.6 mphOvercast
10:32 AM44.6 °F44.6 °F100 %30.41 in10.0 miNNE (20°)3.5 mphMostly Cloudy
10:35 AM44.6 °F44.6 °F100 %30.40 in10.0 miNorth (10°)3.5 mphScattered Clouds
10:55 AM45.3 °F45.3 °F100 %30.41 in10.0 miNNE (20°)5.8 mphPartly Cloudy
11:55 AM48.7 °F42.6 °F79 %30.39 in10.0 miEast (90°)3.5 mphPartly Cloudy
12:55 PM52.9 °F42.6 °F68 %30.38 in10.0 miNE (40°)5.8 mphClear
1:55 PM55.0 °F37.4 °F51 %30.36 in10.0 miNNE (30°)8.1 mphClear
2:55 PM55.6 °F39.0 °F54 %30.37 in10.0 miNE (40°)8.1 mphClear
3:55 PM54.3 °F37.6 °F53 %30.38 in10.0 miNE (50°)5.8 mphClear
4:55 PM52.2 °F37.2 °F57 %30.39 in10.0 miENE (70°)4.6 mphClear
5:55 PM49.8 °F37.9 °F64 %30.40 in10.0 miNE (50°)3.5 mphClear
6:55 PM49.1 °F33.8 °F56 %30.39 in10.0 miNE (40°)6.9 mphClear
7:55 PM48.6 °F33.4 °F56 %30.40 in10.0 miENE (60°)6.9 mphClear
8:55 PM47.7 °F34.0 °F59 %30.41 in10.0 miENE (70°)8.1 mphPartly Cloudy
9:55 PM46.9 °F34.5 °F62 %30.40 in10.0 miEast (80°)9.2 mphMostly Cloudy
10:55 PM46.6 °F33.4 °F60 %30.39 in10.0 miENE (70°)5.8 mphOvercast
11:55 PM46.6 °F34.0 °F62 %30.37 in10.0 miEast (80°)9.2 mphOvercast
Hourly data recorded from KTBN, located miles away from Crocker, Missouri







STORIES FROM OUR PARTNERS